Location: Newark
(54.8056°N, 24.4389°E)
Time: 04:01:43
(UTC+00:00)

Envisat - Visible Passes

Search period start: 13 November 2019 00:00
Search period end: 23 November 2019 00:00
Orbit: 764 x 766 km, 98.1° (Epoch: 12 November)

Date Brightness Start Highest point End Pass type
(mag) Time Alt. Az. Time Alt. Az. Time Alt. Az.
13 Nov 4.9 04:41:21 10° NNE 04:46:00 35° E 04:50:38 10° SSE visible
13 Nov 3.0 16:02:44 10° SSE 16:07:50 87° ENE 16:12:57 10° NNW visible
13 Nov 5.7 17:44:08 10° SW 17:47:34 18° W 17:51:01 10° NW visible
14 Nov 5.9 04:05:14 10° NE 04:08:49 19° E 04:12:24 10° SE visible
14 Nov 3.2 15:26:17 10° SE 15:31:09 48° ENE 15:36:03 10° N visible
14 Nov 4.7 17:05:49 10° SSW 17:10:22 33° W 17:14:58 10° NNW visible
15 Nov 4.0 05:06:40 10° NNE 05:11:40 54° E 05:16:38 10° S visible
15 Nov 3.5 16:28:20 10° S 16:33:22 61° WSW 16:38:27 10° NNW visible
15 Nov 6.2 18:11:55 10° W 18:13:29 11° W 18:15:04 10° WNW visible
16 Nov 5.2 04:30:12 10° NNE 04:34:38 29° E 04:39:02 10° SSE visible
16 Nov 2.9 15:51:30 10° SSE 15:56:33 74° ENE 16:01:40 10° NNW visible
16 Nov 5.4 17:32:17 10° SW 17:36:09 22° W 17:40:02 10° NW visible
17 Nov 6.0 03:54:20 10° NE 03:57:24 16° E 04:00:27 10° ESE visible
17 Nov 3.4 15:15:12 10° SE 15:19:56 41° ENE 15:24:41 10° N visible
17 Nov 4.4 16:54:16 10° SSW 16:59:00 39° W 17:03:48 10° NNW visible
18 Nov 4.4 04:55:27 10° NNE 05:00:20 45° E 05:05:12 10° S visible
18 Nov 3.2 16:16:59 10° S 16:22:04 74° WSW 16:27:11 10° NNW visible
18 Nov 6.0 17:59:26 10° WSW 18:02:01 14° W 18:04:38 10° NW visible
19 Nov 5.5 04:19:06 10° NE 04:23:15 24° E 04:27:21 10° SE visible
19 Nov 3.0 15:40:19 10° SSE 15:45:19 62° ENE 15:50:21 10° N visible
19 Nov 5.1 17:20:32 10° SSW 17:24:45 26° W 17:28:59 10° NW visible
20 Nov 6.2 03:43:37 10° NE 03:45:57 13° E 03:48:16 10° ESE visible
20 Nov 3.5 05:20:51 10° NNE 05:25:57 70° ESE 05:31:01 10° S visible
20 Nov 3.6 15:04:11 10° SE 15:08:44 35° ENE 15:13:19 10° N visible
20 Nov 4.0 16:42:46 10° S 16:47:40 47° W 16:52:36 10° NNW visible
21 Nov 4.7 04:44:15 10° NNE 04:48:59 37° E 04:53:41 10° SSE visible
21 Nov 3.0 16:05:41 10° SSE 16:10:47 87° WSW 16:15:55 10° NNW visible
21 Nov 5.8 17:47:21 10° SW 17:50:35 17° W 17:53:50 10° NW visible
22 Nov 5.8 04:08:04 10° NE 04:11:51 20° E 04:15:35 10° SE visible
22 Nov 3.1 15:29:10 10° SE 15:34:05 52° ENE 15:39:01 10° N visible
22 Nov 4.8 17:08:53 10° SSW 17:13:21 31° W 17:17:52 10° NNW visible
